Погода в Новосадовом

Россия / Белгородская область     50°38′41″N   36°40′57″E
темп.,
°C
ветер,
м/с
пор.,
м/с
влажн.,
%
обл.,
%
осадки,
мм/ч
давл.,
гПа
погр.,
м
31 июля, сб
сб3100:00+19ссз33790 0.0 100946
03:00+18ссз22840 0.0 100913
06:00+18сз23820 0.0 101061
09:00+26сз34461 0.0 1010707
12:00+29сз33330 0.0 10102065
15:00+31сз43298 0.0 10102557
18:00+30ссз233027 0.0 10102539
21:00+26в224387 0.0 101131
1 августа, вс
вс100:00+22ююв22552 0.0 101213
03:00+21ююв22597 0.0 101212
06:00+22ю235688 0.0 101360
09:00+28ююв454037 0.0 1013534
12:00+32ююв442945 0.0 10122934
15:00+33юв442793 0.0 10112830
18:00+32вюв5629100 0.0 10101036
21:00+25юв4947100 0.0 1011160
2 августа, пн
пн200:00+23юв35567 0.0 101174
03:00+22ююз33534 0.0 101137
06:00+22ююз345387 0.0 101189
09:00+30ю57344 0.0 1010733
12:00+34ююз662516 0.0 10092921
15:00+36ююз672168 0.0 10073906
18:00+33юз5828100 0.1 10051067
21:00+21зсз91774100 0.2 1010686
3 августа, вт
вт300:00+19з51289100 2.4 1009410
03:00+21юз378956 11.1 1008199
06:00+19зюз38945 0.0 1009314
09:00+22з457460 0.0 1010701
12:00+26зсз4548100 0.0 10111333
15:00+28зсз563920 0.0 10101955
18:00+26сз664495 0.0 10101557
21:00+20ссз48652 0.0 1013292
4 августа, ср
ср400:00+17ссз35781 0.0 101498
03:00+16ссз34810 0.0 101586
06:00+16с23780 0.0 101683
09:00+22ссз23540 0.0 1017675
12:00+25сз353794 0.0 10172454
15:00+24сз443995 0.0 10171108
18:00+23сз344193 0.0 1017326
21:00+19зсз114950 0.0 101811